Palacios, TX

4:56 AM CDT on May 26, 2017 (GMT -0500)
Palacios Municipal

Weather History for KPSX - September, 2013

Change the Weather History Date:

Friday, September 27, 2013

  Actual Average Record
Temperature  
Mean Temperature 84 °F -  
Max Temperature 90 °F 85 °F 93 °F (2007)
Min Temperature 80 °F 67 °F 53 °F (2000)
Cooling Degree Days 19    
Growing Degree Days 34 (Base 50)    
Moisture  
Dew Point 77 °F    
Average Humidity 84    
Maximum Humidity 94    
Minimum Humidity 69    
Precipitation  
Precipitation 0.33 in - - ()
Sea Level Pressure  
Sea Level Pressure 29.89 in    
Wind  
Wind Speed 9 mph (SE)    
Max Wind Speed 15 mph    
Max Gust Speed 30 mph    
Visibility 9 miles    
Events Rain , Thunderstorm    
Averages and records for this station are not official NWS values.
T = Trace of Precipitation, MM = Missing Value Source: NWS Daily Summary

Daily Weather History Graph

Daily Weather History Graph

Search for Another Location

Airport or City:

Trip Planner

Search our weather history database for the weather conditions in past years. The results will help you decide how hot, cold, wet, or windy it might be!

Date:

Astronomy

Sep. 27, 2013 Rise Set
Actual Time 7:16 AM CDT 7:15 PM CDT
Civil Twilight 6:52 AM CDT 7:38 PM CDT
Nautical Twilight 6:25 AM CDT 8:06 PM CDT
Astronomical Twilight 5:57 AM CDT 8:33 PM CDT
Moon 12:38 AM CDT (9/27) 2:29 PM CDT (9/27)
Length of Visible Light 12h 46m
Length of Day
11h 59m
Last Quarter, 45% of the Moon is Illuminated
Sep 27
Last Quarter
Oct 4
New
Oct 11
First Quarter
Oct 18
Full
Oct 26
Last Quarter

Hourly Weather History & Observations

Time (CDT) Temp. Heat Index Dew Point Humidity Pressure Visibility Wind Dir Wind Speed Gust Speed Precip Events Conditions
12:53 AM 81.0 °F 87.3 °F 75.9 °F 85% 29.89 in 10.0 mi SSE 9.2 mph - N/A   Clear
1:53 AM 80.1 °F 85.4 °F 75.9 °F 87% 29.88 in 10.0 mi SE 8.1 mph - N/A   Clear
2:53 AM 81.0 °F 87.3 °F 75.9 °F 85% 29.87 in 10.0 mi SSE 8.1 mph - N/A   Clear
3:53 AM 81.0 °F 87.3 °F 75.9 °F 85% 29.86 in 10.0 mi SSE 9.2 mph - N/A   Mostly Cloudy
4:53 AM 81.0 °F 87.9 °F 77.0 °F 88% 29.86 in 10.0 mi SSE 5.8 mph - N/A   Clear
5:53 AM 80.1 °F 85.4 °F 75.9 °F 87% 29.86 in 10.0 mi SSE 6.9 mph - N/A   Clear
6:53 AM 80.1 °F 85.4 °F 75.9 °F 87% 29.88 in 10.0 mi SSE 6.9 mph - N/A   Clear
8:29 AM 82.4 °F 90.9 °F 77.0 °F 84% 29.90 in 10.0 mi SE 6.9 mph - N/A   Mostly Cloudy
8:53 AM 82.9 °F 91.8 °F 77.0 °F 82% 29.91 in 10.0 mi SE 6.9 mph - N/A   Mostly Cloudy
9:45 AM 84.2 °F 92.3 °F 75.2 °F 74% 29.92 in 10.0 mi SE 11.5 mph - N/A   Scattered Clouds
9:53 AM 84.0 °F 92.6 °F 75.9 °F 76% 29.92 in 10.0 mi SE 9.2 mph - N/A   Scattered Clouds
10:53 AM 87.1 °F 97.3 °F 75.9 °F 69% 29.93 in 10.0 mi SSE 12.7 mph - N/A   Partly Cloudy
11:53 AM 88.0 °F 100.2 °F 77.0 °F 70% 29.93 in 10.0 mi SSE 12.7 mph - N/A   Clear
12:53 PM 88.0 °F 100.2 °F 77.0 °F 70% 29.92 in 10.0 mi SE 15.0 mph - N/A   Partly Cloudy
1:53 PM 87.1 °F 98.8 °F 77.0 °F 72% 29.90 in 10.0 mi SE 12.7 mph - N/A   Mostly Cloudy
2:53 PM 87.1 °F 99.8 °F 78.1 °F 74% 29.88 in 10.0 mi SE 12.7 mph 20.7 mph N/A   Mostly Cloudy
3:41 PM 82.4 °F 89.5 °F 75.2 °F 79% 29.88 in 6.0 mi South 11.5 mph 20.7 mph 0.02 in Rain , Thunderstorm Rain
3:53 PM 81.0 °F 87.9 °F 77.0 °F 88% 29.88 in 4.0 mi South 10.4 mph 18.4 mph 0.03 in Rain , Thunderstorm Light Rain
3:58 PM 80.6 °F 87.1 °F 77.0 °F 89% 29.88 in 1.8 mi South 8.1 mph - 0.09 in Rain Heavy Rain
4:06 PM 80.6 °F 87.1 °F 77.0 °F 89% 29.87 in 2.0 mi South 6.9 mph - 0.13 in Rain Light Rain
4:14 PM 80.6 °F 87.1 °F 77.0 °F 89% 29.87 in 10.0 mi South 4.6 mph - 0.13 in   Overcast
4:35 PM 80.6 °F 86.2 °F 75.2 °F 84% 29.87 in 1.5 mi ESE 6.9 mph 20.7 mph 0.23 in Rain Heavy Rain
4:40 PM 80.6 °F 87.1 °F 77.0 °F 89% 29.87 in 2.0 mi ESE 10.4 mph - 0.23 in Rain Rain
4:50 PM 82.4 °F 94.0 °F 80.6 °F 94% 29.87 in 10.0 mi SE 8.1 mph - 0.23 in Rain Light Rain
4:53 PM 82.9 °F 93.8 °F 79.0 °F 88% 29.87 in 6.0 mi ESE 8.1 mph - 0.24 in Rain Light Rain
5:53 PM 82.9 °F 92.8 °F 78.1 °F 85% 29.86 in 5.0 mi ESE 10.4 mph 20.7 mph 0.05 in Rain Rain
6:53 PM 82.0 °F 91.0 °F 78.1 °F 88% 29.87 in 10.0 mi SE 9.2 mph - 0.01 in   Partly Cloudy
7:53 PM 82.0 °F 90.2 °F 77.0 °F 85% 29.88 in 10.0 mi ESE 12.7 mph - N/A   Partly Cloudy
8:28 PM 82.4 °F 92.4 °F 78.8 °F 89% 29.88 in 10.0 mi ESE 11.5 mph - 0.00 in   Mostly Cloudy
8:38 PM 82.4 °F 90.9 °F 77.0 °F 84% 29.88 in 10.0 mi SE 8.1 mph 20.7 mph 0.00 in   Scattered Clouds
8:53 PM 81.0 °F 87.9 °F 77.0 °F 88% 29.88 in 10.0 mi SE 11.5 mph - 0.00 in   Partly Cloudy
9:38 PM 82.4 °F 90.9 °F 77.0 °F 84% 29.90 in 10.0 mi ESE 11.5 mph 29.9 mph N/A   Mostly Cloudy
9:53 PM 82.0 °F 91.0 °F 78.1 °F 88% 29.90 in 10.0 mi North - - N/A   Mostly Cloudy
10:07 PM 82.4 °F 90.9 °F 77.0 °F 84% 29.90 in 10.0 mi North - - N/A   Partly Cloudy
10:53 PM 82.0 °F 90.2 °F 77.0 °F 85% 29.91 in 10.0 mi SE 13.8 mph - N/A   Clear
11:53 PM 82.0 °F 90.2 °F 77.0 °F 85% 29.90 in 10.0 mi SE 12.7 mph - N/A   Scattered Clouds